EW0415 Weather Reports


time (UTC)temp
F
wind
direction
speed
knots
gust
knots
rain 1hr
in
rain 24hr
in
rain mn
in
humidity
%
barometer
mb
20260510221011 56 109 1.7 7.0 0.00 0.00 0.00 85 1032.5
20260510220511 56 109 1.7 7.8 0.00 0.00 0.00 85 1032.4
20260510220029 56 111 2.6 8.7 0.00 0.00 0.00 85 1032.3
20260510215512 55 104 1.7 8.7 0.00 0.00 0.00 85 1032.4
20260510215010 55 112 1.7 7.8 0.00 0.00 0.00 85 1032.3
20260510214529 55 113 0.9 7.0 0.00 0.00 0.00 85 1032.4
20260510214015 55 115 1.7 7.8 0.00 0.00 0.00 85 1032.4
20260510213512 55 112 0.9 7.8 0.00 0.00 0.00 85 1032.3
20260510213030 55 114 0.9 6.1 0.00 0.00 0.00 85 1032.3
20260510212507 55 115 0.9 6.1 0.00 0.00 0.00 85 1032.3
20260510212008 55 115 0.9 6.1 0.00 0.00 0.00 85 1032.3
20260510211532 55 114 0.9 6.1 0.00 0.00 0.00 85 1032.2
20260510211008 55 115 0.0 7.0 0.00 0.00 0.00 85 1032.2
20260510210511 55 0 0.9 7.0 0.00 0.00 0.00 85 1032.2
20260510210027 55 113 1.7 7.0 0.00 0.00 0.00 85 1032.2
20260510205512 55 115 0.9 5.2 0.00 0.00 0.00 85 1032.2
20260510205008 55 0 0.0 5.2 0.00 0.00 0.00 84 1032.0
20260510204530 55 0 0.0 6.1 0.00 0.00 0.00 84 1032.0
20260510204010 54 115 0.0 6.1 0.00 0.00 0.00 84 1031.9
20260510203509 54 0 0.0 6.1 0.00 0.00 0.00 84 1031.9
20260510203027 54 0 0.0 3.5 0.00 0.00 0.00 84 1031.8
20260510202508 54 114 0.0 5.2 0.00 0.00 0.00 84 1031.9
20260510202011 54 0 0.9 5.2 0.00 0.00 0.00 84 1031.8
20260510201528 54 113 0.0 3.5 0.00 0.00 0.00 84 1031.8
20260510201007 54 0 0.0 3.5 0.00 0.00 0.00 83 1031.8
20260510200509 54 0 0.0 2.6 0.00 0.00 0.00 83 1031.8
20260510200028 54 0 0.0 2.6 0.00 0.00 0.00 83 1031.6
20260510195507 54 0 0.0 2.6 0.00 0.00 0.00 83 1031.7
20260510195010 54 0 0.0 2.6 0.00 0.00 0.00 83 1031.8
20260510194531 54 0 0.0 2.6 0.00 0.00 0.00 83 1031.7
20260510194008 54 0 0.0 0.9 0.00 0.00 0.00 83 1031.6
20260510193510 54 0 0.0 2.6 0.00 0.00 0.00 83 1031.5
20260510193027 55 0 0.0 2.6 0.00 0.00 0.00 83 1031.5
20260510192509 55 113 0.0 2.6 0.00 0.00 0.00 83 1031.4
20260510192010 55 0 0.0 2.6 0.00 0.00 0.00 83 1031.2
20260510191536 55 0 0.0 0.9 0.00 0.00 0.00 83 1031.3
20260510191009 55 0 0.0 0.9 0.00 0.00 0.00 83 1031.2
20260510190508 55 0 0.0 0.9 0.00 0.00 0.00 83 1031.3
20260510190042 55 0 0.0 1.7 0.00 0.00 0.00 83 1031.1
20260510185512 55 0 0.0 3.5 0.00 0.00 0.00 83 1031.1
20260510185012 55 0 0.9 5.2 0.00 0.00 0.00 83 1031.0
20260510184528 55 113 0.9 5.2 0.00 0.00 0.00 83 1031.0
20260510184008 55 113 0.9 5.2 0.00 0.00 0.00 83 1030.9
20260510183511 55 110 0.9 5.2 0.00 0.00 0.00 83 1031.0
20260510183028 55 0 0.0 5.2 0.00 0.00 0.00 83 1030.9
20260510182515 55 0 0.9 5.2 0.00 0.00 0.00 83 1030.8
20260510182014 56 110 0.0 3.5 0.00 0.00 0.00 83 1030.8
20260510181541 56 0 0.0 5.2 0.00 0.00 0.00 83 1030.7
20260510181012 56 0 0.9 7.0 0.00 0.00 0.00 83 1030.7
20260510180511 56 110 0.9 7.0 0.00 0.00 0.00 83 1030.9
20260510180034 55 110 1.7 7.0 0.00 0.00 0.00 83 1030.8
20260510175508 56 110 1.7 5.2 0.00 0.00 0.00 83 1030.8
20260510175014 55 110 0.9 6.1 0.00 0.00 0.00 83 1030.8
20260510174530 56 111 1.7 6.1 0.00 0.00 0.00 83 1030.8
20260510174010 56 112 1.7 6.1 0.00 0.00 0.00 83 1030.8
20260510173511 56 0 0.9 6.1 0.00 0.00 0.00 83 1030.8
20260510173028 56 0 1.7 6.1 0.00 0.00 0.00 83 1030.8
20260510172509 56 112 0.9 5.2 0.00 0.00 0.00 83 1030.8
20260510172012 56 111 0.9 6.1 0.00 0.00 0.00 83 1030.9
20260510171529 56 111 1.7 6.1 0.00 0.00 0.00 83 1030.7
20260510171012 56 112 1.7 6.1 0.00 0.00 0.00 83 1030.9
20260510170512 56 109 0.9 7.8 0.00 0.00 0.00 83 1030.8
20260510170028 56 109 1.7 7.8 0.00 0.00 0.00 83 1030.9
20260510165512 56 109 0.9 5.2 0.00 0.00 0.00 83 1030.8
20260510165014 56 111 0.0 7.0 0.00 0.00 0.00 83 1031.0
20260510164528 56 0 0.9 7.0 0.00 0.00 0.00 83 1030.9
20260510164010 56 111 1.7 6.1 0.00 0.00 0.00 83 1031.0
20260510163509 56 111 0.9 2.6 0.00 0.00 0.00 82 1031.0
20260510163028 56 111 0.0 1.7 0.00 0.00 0.00 82 1031.0
20260510162507 56 0 0.0 1.7 0.00 0.00 0.00 83 1031.1
20260510162010 56 0 0.0 0.9 0.00 0.00 0.00 83 1031.2
20260510161528 56 0 0.0 0.9 0.00 0.00 0.00 83 1031.3
20260510161013 56 0 0.0 0.9 0.00 0.00 0.00 83 1031.2
20260510160515 56 0 0.0 2.6 0.00 0.00 0.00 83 1031.2
20260510160034 56 0 0.0 2.6 0.00 0.00 0.00 83 1031.3
20260510155515 56 0 0.0 6.1 0.00 0.00 0.00 83 1031.3
20260510155008 56 0 0.9 6.1 0.00 0.00 0.00 83 1031.3
20260510154544 56 111 0.9 6.1 0.00 0.00 0.00 83 1031.3
20260510154010 56 112 0.9 5.2 0.00 0.00 0.00 82 1031.4
20260510153509 56 0 0.0 7.8 0.00 0.00 0.00 82 1031.4
20260510153041 56 0 0.9 7.8 0.00 0.00 0.00 82 1031.4
20260510152512 56 0 1.7 6.1 0.00 0.00 0.00 82 1031.3
20260510152012 56 111 0.0 6.1 0.00 0.00 0.00 82 1031.3
20260510151531 56 0 0.9 6.1 0.00 0.00 0.00 82 1031.3
20260510151010 56 109 0.9 7.0 0.00 0.00 0.00 82 1031.3
20260510150512 56 0 1.7 7.0 0.00 0.00 0.00 82 1031.3
20260510150030 56 105 1.7 7.0 0.00 0.00 0.00 82 1031.3
20260510145511 56 105 1.7 7.0 0.00 0.00 0.00 82 1031.4
20260510145011 56 108 1.7 7.8 0.00 0.00 0.00 82 1031.3
20260510144544 56 107 1.7 7.8 0.00 0.00 0.00 82 1031.3
20260510144011 56 106 1.7 7.8 0.00 0.00 0.00 82 1031.4
20260510143516 56 104 0.9 7.8 0.00 0.00 0.00 82 1031.4
20260510143028 56 105 1.7 7.8 0.00 0.00 0.00 82 1031.4
20260510142523 56 108 1.7 6.1 0.00 0.00 0.00 82 1031.4
20260510142012 56 109 1.7 8.7 0.00 0.00 0.00 82 1031.3
20260510141528 56 107 0.9 8.7 0.00 0.00 0.00 82 1031.3
20260510141011 56 113 0.9 7.0 0.00 0.00 0.00 82 1031.3
20260510140510 56 111 0.9 7.0 0.00 0.00 0.00 82 1031.4
20260510140028 57 110 0.9 5.2 0.00 0.00 0.00 82 1031.5
20260510135510 57 110 0.9 6.1 0.00 0.00 0.00 82 1031.5
20260510135011 57 109 0.9 6.1 0.00 0.00 0.00 82 1031.4
20260510134530 57 109 0.9 6.1 0.00 0.00 0.00 82 1031.4
20260510134017 57 108 0.0 5.2 0.00 0.00 0.00 82 1031.3
20260510133510 57 0 0.9 7.0 0.00 0.00 0.00 82 1031.5
20260510133030 57 109 0.9 7.0 0.00 0.00 0.00 82 1031.5
20260510132511 57 0 0.9 7.0 0.00 0.00 0.00 82 1031.3
20260510132013 57 108 0.9 8.7 0.00 0.00 0.00 82 1031.3
20260510131528 57 0 1.7 8.7 0.00 0.00 0.00 82 1031.2
20260510131013 57 109 1.7 7.8 0.00 0.00 0.00 82 1031.3
20260510130511 57 110 0.9 7.8 0.00 0.00 0.00 82 1031.4
20260510130028 57 111 1.7 7.8 0.00 0.00 0.00 82 1031.4
20260510125512 57 113 0.9 5.2 0.00 0.00 0.00 81 1031.4
20260510125012 57 113 0.9 6.1 0.00 0.00 0.00 81 1031.4
20260510124528 56 0 0.9 6.1 0.00 0.00 0.00 81 1031.4
20260510124012 56 0 0.9 6.1 0.00 0.00 0.00 81 1031.4
20260510123517 56 107 1.7 6.1 0.00 0.00 0.00 81 1031.4
20260510123030 56 107 1.7 7.0 0.00 0.00 0.00 81 1031.5
20260510122514 56 104 1.7 7.0 0.00 0.00 0.00 81 1031.6
20260510122012 56 103 0.9 7.0 0.00 0.00 0.00 80 1031.6
20260510121527 56 109 1.7 6.1 0.00 0.00 0.00 80 1031.5
20260510121011 56 0 0.0 6.1 0.00 0.00 0.00 80 1031.5
20260510120512 56 0 1.7 6.1 0.00 0.00 0.00 80 1031.5
20260510120028 56 114 0.9 7.0 0.00 0.00 0.00 79 1031.4
20260510115512 56 0 0.9 7.0 0.00 0.00 0.00 79 1031.3
20260510115010 56 116 2.6 7.0 0.00 0.00 0.00 78 1031.3
20260510114527 55 0 0.9 6.1 0.00 0.00 0.00 76 1031.2
20260510114008 55 217 0.9 2.6 0.00 0.00 0.00 76 1031.3
20260510113510 55 0 0.0 1.7 0.00 0.00 0.00 75 1031.2
20260510113026 54 0 0.0 0.9 0.00 0.00 0.00 74 1031.3
20260510112508 54 0 0.0 2.6 0.00 0.00 0.00 74 1031.4
20260510112011 54 0 0.0 2.6 0.00 0.00 0.00 74 1031.4
20260510111529 54 0 0.0 0.9 0.00 0.00 0.00 73 1031.2
20260510111013 54 0 0.0 0.0 0.00 0.00 0.00 72 1031.3
20260510110511 54 0 0.0 0.0 0.00 0.00 0.00 72 1031.3
20260510110026 54 0 0.0 0.0 0.00 0.00 0.00 72 1031.4
20260510105510 54 0 0.0 0.9 0.00 0.00 0.00 72 1031.3
20260510105008 55 0 0.0 0.9 0.00 0.00 0.00 72 1031.3
20260510104529 55 0 0.0 0.0 0.00 0.00 0.00 71 1031.4
20260510104009 55 0 0.0 0.0 0.00 0.00 0.00 71 1031.5
20260510103510 55 0 0.0 0.0 0.00 0.00 0.00 71 1031.4
20260510103027 55 0 0.0 0.0 0.00 0.00 0.00 71 1031.4
20260510102509 55 0 0.0 0.0 0.00 0.00 0.00 70 1031.3
20260510102010 56 0 0.0 0.0 0.00 0.00 0.00 70 1031.4
20260510101528 56 0 0.0 0.0 0.00 0.00 0.00 70 1031.4
20260510101010 56 0 0.0 0.0 0.00 0.00 0.00 70 1031.4
20260510100509 56 0 0.0 0.0 0.00 0.00 0.00 70 1031.4
20260510100028 56 0 0.0 0.0 0.00 0.00 0.00 70 1031.4
20260510095511 56 0 0.0 0.0 0.00 0.00 0.00 70 1031.3
20260510095014 57 0 0.0 0.0 0.00 0.00 0.00 69 1031.4
20260510094528 57 0 0.0 0.0 0.00 0.00 0.00 69 1031.4
20260510094007 57 0 0.0 0.0 0.00 0.00 0.00 69 1031.3
20260510093512 57 0 0.0 0.0 0.00 0.00 0.00 69 1031.3
20260510093026 57 0 0.0 0.0 0.00 0.00 0.00 69 1031.2
20260510092507 57 0 0.0 0.0 0.00 0.00 0.00 69 1031.3
20260510092010 57 0 0.0 0.0 0.00 0.00 0.00 68 1031.3
20260510091528 58 0 0.0 0.0 0.00 0.00 0.00 68 1031.3
20260510091009 58 0 0.0 0.0 0.00 0.00 0.00 68 1031.3
20260510090510 58 0 0.0 0.0 0.00 0.00 0.00 68 1031.2
20260510090028 58 0 0.0 0.0 0.00 0.00 0.00 68 1031.0
20260510085508 59 0 0.0 0.0 0.00 0.00 0.00 68 1030.9
20260510085010 59 0 0.0 0.0 0.00 0.00 0.00 68 1030.9
20260510084543 59 0 0.0 0.0 0.00 0.00 0.00 67 1030.9
20260510084010 59 0 0.0 0.0 0.00 0.00 0.00 67 1030.8
20260510083512 59 0 0.0 0.0 0.00 0.00 0.00 67 1030.8
20260510083028 60 0 0.0 0.0 0.00 0.00 0.00 66 1030.8
20260510082508 60 0 0.0 0.0 0.00 0.00 0.00 66 1030.8
20260510082010 60 0 0.0 0.0 0.00 0.00 0.00 66 1030.8
20260510081534 61 0 0.0 0.0 0.00 0.00 0.00 66 1030.7
20260510081007 61 0 0.0 0.0 0.00 0.00 0.00 65 1030.6
20260510080508 61 0 0.0 0.0 0.00 0.00 0.00 65 1030.6
20260510080028 62 0 0.0 0.0 0.00 0.00 0.00 65 1030.5
20260510075508 62 0 0.0 0.0 0.00 0.00 0.00 65 1030.6
20260510075012 62 0 0.0 0.9 0.00 0.00 0.00 65 1030.5
20260510074528 62 0 0.0 1.7 0.00 0.00 0.00 65 1030.3
20260510074011 62 219 0.0 1.7 0.00 0.00 0.00 65 1030.2
20260510073510 63 0 0.0 1.7 0.00 0.00 0.00 65 1030.2
20260510073045 63 0 0.0 1.7 0.00 0.00 0.00 65 1030.3
20260510072511 63 0 0.0 0.0 0.00 0.00 0.00 64 1030.2
20260510072010 63 0 0.0 0.9 0.00 0.00 0.00 64 1030.3
20260510071529 63 0 0.0 0.9 0.00 0.00 0.00 64 1030.2
20260510071011 63 0 0.0 1.7 0.00 0.00 0.00 64 1030.2
20260510070511 63 0 0.0 2.6 0.00 0.00 0.00 63 1030.1
20260510070026 63 0 0.0 2.6 0.00 0.00 0.00 63 1030.2
20260510065515 64 0 0.0 2.6 0.00 0.00 0.00 63 1030.1
20260510065016 64 0 0.0 1.7 0.00 0.00 0.00 63 1030.0
20260510064527 64 0 0.0 3.5 0.00 0.00 0.00 63 1030.0
20260510064012 64 225 0.0 3.5 0.00 0.00 0.00 63 1030.0
20260510063510 64 226 0.0 2.6 0.00 0.00 0.00 63 1029.9
20260510063030 64 223 0.0 2.6 0.00 0.00 0.00 63 1029.9
20260510062513 64 0 0.0 2.6 0.00 0.00 0.00 63 1029.9
20260510062008 64 0 0.0 2.6 0.00 0.00 0.00 63 1029.8
20260510061528 64 0 0.9 2.6 0.00 0.00 0.00 62 1029.8
20260510061011 64 220 0.0 2.6 0.00 0.00 0.00 62 1029.8
20260510060511 64 221 0.0 2.6 0.00 0.00 0.00 62 1029.9
20260510060037 64 0 0.0 3.5 0.00 0.00 0.00 62 1029.9
20260510055511 65 223 0.9 3.5 0.00 0.00 0.00 62 1029.9
20260510055013 65 230 1.7 3.5 0.00 0.00 0.00 61 1029.8
20260510054528 65 0 0.9 3.5 0.00 0.00 0.00 61 1029.8
20260510054012 65 0 0.0 3.5 0.00 0.00 0.00 61 1029.9
20260510053512 65 219 0.0 3.5 0.00 0.00 0.00 61 1029.8
20260510053028 65 218 0.9 3.5 0.00 0.00 0.00 61 1029.8
20260510052510 65 0 0.0 1.7 0.00 0.00 0.00 62 1029.8
20260510052011 65 0 0.0 0.9 0.00 0.00 0.00 62 1029.8
20260510051528 65 0 0.0 0.9 0.00 0.00 0.00 62 1029.8
20260510051011 65 218 0.0 0.9 0.00 0.00 0.00 63 1029.8
20260510050508 65 0 0.0 0.9 0.00 0.00 0.00 62 1029.8
20260510050028 65 0 0.0 1.7 0.00 0.00 0.00 63 1029.9
20260510045511 65 0 0.0 1.7 0.00 0.00 0.00 62 1029.7
20260510045010 65 0 0.0 2.6 0.00 0.00 0.00 62 1029.8
20260510044530 65 0 0.0 2.6 0.00 0.00 0.00 61 1029.8
20260510044010 65 0 0.0 1.7 0.00 0.00 0.00 62 1029.9
20260510043511 65 0 0.0 1.7 0.00 0.00 0.00 61 1029.9
20260510043028 65 0 0.0 1.7 0.00 0.00 0.00 61 1030.0
20260510042511 65 0 0.0 2.6 0.00 0.00 0.00 62 1029.9
20260510042010 65 218 0.0 2.6 0.00 0.00 0.00 61 1029.9
20260510041535 65 218 0.9 2.6 0.00 0.00 0.00 62 1029.9
20260510041015 65 0 0.9 2.6 0.00 0.00 0.00 62 1030.0
20260510040511 65 0 0.0 2.6 0.00 0.00 0.00 63 1029.9
20260510040028 65 0 0.0 2.6 0.00 0.00 0.00 63 1029.9
20260510035511 65 0 0.0 1.7 0.00 0.00 0.00 64 1030.0
20260510035009 65 218 0.0 4.3 0.00 0.00 0.00 64 1030.0
20260510034529 64 0 0.9 4.3 0.00 0.00 0.00 64 1030.2
20260510034009 64 217 0.9 3.5 0.00 0.00 0.00 65 1030.2
20260510033512 64 0 0.0 1.7 0.00 0.00 0.00 65 1030.3
20260510033030 64 0 0.0 1.7 0.00 0.00 0.00 65 1030.4
20260510032512 64 0 0.0 2.6 0.00 0.00 0.00 66 1030.4
20260510032011 64 0 0.0 2.6 0.00 0.00 0.00 66 1030.4
20260510031530 64 213 0.0 2.6 0.00 0.00 0.00 66 1030.5
20260510031010 64 0 0.0 1.7 0.00 0.00 0.00 68 1030.4
20260510030511 64 0 0.0 1.7 0.00 0.00 0.00 68 1030.6
20260510030034 64 213 0.0 1.7 0.00 0.00 0.00 68 1030.6
20260510025508 64 0 0.0 0.0 0.00 0.00 0.00 68 1030.6
20260510025011 64 0 0.0 3.5 0.00 0.00 0.00 69 1030.8
20260510024534 63 0 0.0 3.5 0.00 0.00 0.00 70 1030.9
20260510024008 63 213 0.9 3.5 0.00 0.00 0.00 70 1030.9
20260510023511 63 0 0.0 0.9 0.00 0.00 0.00 71 1031.0
20260510023028 63 0 0.0 2.6 0.00 0.00 0.00 72 1031.1
20260510022511 63 0 0.0 3.5 0.00 0.00 0.00 72 1031.1
20260510022015 62 215 0.0 3.5 0.00 0.00 0.00 74 1031.1
20260510021534 62 0 0.0 2.6 0.00 0.00 0.00 76 1031.3
20260510021010 62 0 0.0 3.5 0.00 0.00 0.00 77 1031.3
20260510020511 61 0 0.0 3.5 0.00 0.00 0.00 78 1031.4
20260510020029 61 0 0.0 1.7 0.00 0.00 0.00 79 1031.5
20260510015517 60 0 0.0 2.6 0.00 0.00 0.00 81 1031.5
20260510015010 60 214 0.0 2.6 0.00 0.00 0.00 82 1031.5
20260510014530 60 214 0.0 2.6 0.00 0.00 0.00 84 1031.6
20260510014010 60 0 0.0 1.7 0.00 0.00 0.00 85 1031.8
20260510013510 59 0 0.0 1.7 0.00 0.00 0.00 86 1031.7
20260510013027 59 0 0.0 1.7 0.00 0.00 0.00 86 1031.7
20260510012534 59 0 0.0 1.7 0.00 0.00 0.00 87 1031.7
20260510012011 58 0 0.0 1.7 0.00 0.00 0.00 88 1031.7
20260510011530 58 214 0.0 1.7 0.00 0.00 0.00 88 1031.8
20260510011009 58 0 0.0 1.7 0.00 0.00 0.00 88 1031.7
20260510010509 58 0 0.0 1.7 0.00 0.00 0.00 89 1031.9
20260510010029 57 0 0.0 1.7 0.00 0.00 0.00 89 1031.9
20260510005511 57 0 0.0 1.7 0.00 0.00 0.00 89 1031.9
20260510005013 57 0 0.0 2.6 0.00 0.00 0.00 90 1032.0
20260510004528 56 0 0.0 2.6 0.00 0.00 0.00 90 1032.0
20260510004011 56 0 0.0 2.6 0.00 0.00 0.00 90 1031.8
20260510003510 56 214 0.9 5.2 0.00 0.00 0.00 89 1031.9
20260510003031 56 214 1.7 5.2 0.00 0.00 0.00 90 1031.8
20260510002511 56 225 1.7 5.2 0.00 0.00 0.00 90 1031.8
20260510002014 56 240 0.9 5.2 0.00 0.00 0.00 90 1031.9
20260510001528 56 257 0.9 3.5 0.00 0.00 0.00 90 1031.8
20260510001012 56 0 0.0 0.0 0.00 0.00 0.00 90 1031.9
20260510000510 55 0 0.0 0.0 0.00 0.00 0.00 90 1031.9
20260510000028 55 0 0.0 0.0 0.00 0.00 0.00 90 1031.8
20260509235510 55 0 0.0 0.0 0.00 0.00 0.00 90 1031.9
20260509235013 55 0 0.0 0.0 0.00 0.00 0.00 90 1031.8
20260509234536 55 0 0.0 0.0 0.00 0.00 0.00 90 1032.0
20260509234010 54 0 0.0 0.0 0.00 0.00 0.00 90 1032.0
20260509233510 54 0 0.0 0.0 0.00 0.00 0.00 90 1031.9
20260509233026 54 0 0.0 0.0 0.00 0.00 0.00 90 1031.9
20260509232508 54 0 0.0 0.0 0.00 0.00 0.00 90 1032.0
20260509232011 54 0 0.0 0.0 0.00 0.00 0.00 90 1031.9
20260509231528 53 0 0.0 0.0 0.00 0.00 0.00 90 1031.9
20260509231010 53 0 0.0 0.0 0.00 0.00 0.00 90 1031.9
20260509230515 53 0 0.0 0.0 0.00 0.00 0.00 89 1031.8
20260509230028 53 0 0.0 0.0 0.00 0.00 0.00 89 1031.8
20260509225511 53 0 0.0 0.0 0.00 0.00 0.00 89 1031.8
20260509225011 52 0 0.0 0.0 0.00 0.00 0.00 89 1031.8
20260509224528 52 0 0.0 0.0 0.00 0.00 0.00 89 1031.9
20260509224010 52 0 0.0 0.0 0.00 0.00 0.00 89 1031.8
20260509223511 52 0 0.0 0.0 0.00 0.00 0.00 89 1031.7
20260509223028 51 0 0.0 0.0 0.00 0.00 0.00 89 1031.7
20260509222510 51 0 0.0 0.0 0.00 0.00 0.00 89 1031.6
20260509222010 51 0 0.0 0.0 0.00 0.00 0.00 89 1031.7
20260509221530 51 0 0.0 0.0 0.00 0.00 0.00 89 1031.6